Find GPS IIF-2

NORAD ID: 37753 Int'l Des: 2011-036 Owner: AFSMC Country: US Constellation: GPS operational
MEOGNSS

リアルタイム位置

3D地球を読み込み中...

GPS IIF-2について

説明を読み込み中...

次回通過

Passes for default location (London). Set your location on the main map for personalized predictions.

高度履歴

Loading altitude history...

軌道要素

1 37753U 11036A 26106.98542233 -.00000052 00000-0 00000-0 0 9995
2 37753 56.5920 334.4015 0141462 61.5441 260.1886 2.00562825108047
Epoch: Apr 16, 2026 • Age: 15 hours

現在のステータス

高度 19835.8 km
速度 3.93 km/s
衛星直下点 31.68°N, 60.4°W
打ち上げ日 Jul 16, 2011
運用期間 14.7 years
タイプ navigation

技術仕様

分類 Payload
質量 1630.00 kg
乾燥質量 1500.00 kg
総質量 1630.00 kg
長さ 2.50 m
直径 1.80 m
スパン 18.00 m
形状 Box + 2 Pan
製造者 BOES
バスタイプ GPS IIF
フェーズステータス In Orbit
所有者/国 AFSMC/US

Most Searched